Ludington, MI

5:10 AM EST on December 18, 2017 (GMT -0500)
Mason County

Weather History for KLDM - November, 2013

Change the Weather History Date:

Friday, November 29, 2013

  Actual Average Record
Temperature  
Mean Temperature 29 °F -  
Max Temperature 32 °F 37 °F 57 °F (2006)
Min Temperature 26 °F 26 °F 4 °F (1958)
Degree Days  
Heating Degree Days 36    
Moisture  
Dew Point 21 °F    
Average Humidity 68    
Maximum Humidity 82    
Minimum Humidity 61    
Precipitation  
Precipitation 0.01 in - - ()
Sea Level Pressure  
Sea Level Pressure 30.52 in    
Wind  
Wind Speed 5 mph (SSW)    
Max Wind Speed 12 mph    
Max Gust Speed 16 mph    
Visibility 10 miles    
Events      
Averages and records for this station are not official NWS values.
T = Trace of Precipitation, MM = Missing Value Source: NWS Daily Summary

Daily Weather History Graph

Daily Weather History Graph

Search for Another Location

Airport or City:

Trip Planner

Search our weather history database for the weather conditions in past years. The results will help you decide how hot, cold, wet, or windy it might be!

Date:

Astronomy

Nov. 29, 2013 Rise Set
Actual Time 7:58 AM EST 5:09 PM EST
Civil Twilight 7:25 AM EST 5:41 PM EST
Nautical Twilight 6:50 AM EST 6:17 PM EST
Astronomical Twilight 6:15 AM EST 6:52 PM EST
Moon 3:56 AM EST (11/29) 2:59 PM EST (11/29)
Length of Visible Light 10h 15m
Length of Day
9h 11m
Waning Crescent, 14% of the Moon is Illuminated
Nov 29
Waning Crescent
Dec 2
New
Dec 9
First Quarter
Dec 17
Full
Dec 25
Last Quarter

Hourly Weather History & Observations

Time (EST) Temp. Windchill Dew Point Humidity Pressure Visibility Wind Dir Wind Speed Gust Speed Precip Events Conditions
12:15 AM 28.4 °F 24.6 °F 18.5 °F 66% 30.42 in 10.0 mi NNW 3.5 mph - N/A   Mostly Cloudy
12:35 AM 28.4 °F 23.3 °F 18.1 °F 65% 30.42 in 10.0 mi NNW 4.6 mph - N/A   Scattered Clouds
12:54 AM 27.7 °F 22.4 °F 18.0 °F 67% 30.43 in 10.0 mi NW 4.6 mph - N/A   Overcast
1:15 AM 28.4 °F 23.3 °F 18.3 °F 66% 30.43 in 10.0 mi NNW 4.6 mph - N/A   Overcast
1:35 AM 28.4 °F 24.6 °F 18.5 °F 66% 30.43 in 10.0 mi NW 3.5 mph - N/A   Overcast
1:54 AM 28.4 °F 24.6 °F 19.8 °F 70% 30.44 in 10.0 mi NW 3.5 mph - N/A   Overcast
2:15 AM 27.1 °F - 20.1 °F 75% 30.44 in 10.0 mi Calm Calm - N/A   Overcast
2:35 AM 27.9 °F 22.6 °F 20.5 °F 74% 30.45 in 10.0 mi NW 4.6 mph - N/A   Overcast
2:55 AM 28.4 °F 24.6 °F 18.3 °F 66% 30.46 in 10.0 mi NW 3.5 mph - N/A   Overcast
3:15 AM 29.5 °F 24.5 °F 19.6 °F 67% 30.47 in 10.0 mi West 4.6 mph - N/A   Overcast
3:35 AM 30.9 °F 27.5 °F 20.3 °F 65% 30.47 in 10.0 mi WSW 3.5 mph - N/A   Overcast
3:55 AM 30.9 °F - 20.3 °F 65% 30.48 in 10.0 mi Calm Calm - N/A   Overcast
4:15 AM 30.9 °F 27.5 °F 21.2 °F 67% 30.48 in 10.0 mi West 3.5 mph - N/A   Overcast
4:35 AM 30.9 °F - 21.2 °F 67% 30.48 in 10.0 mi Calm Calm - N/A   Overcast
4:55 AM 30.9 °F - 21.2 °F 67% 30.48 in 10.0 mi Calm Calm - N/A   Overcast
5:15 AM 30.9 °F 27.5 °F 21.6 °F 68% 30.49 in 10.0 mi West 3.5 mph - N/A   Overcast
5:35 AM 30.9 °F - 21.7 °F 69% 30.49 in 10.0 mi Calm Calm - N/A   Overcast
5:55 AM 30.9 °F 27.5 °F 21.2 °F 67% 30.50 in 10.0 mi West 3.5 mph - N/A   Overcast
6:15 AM 30.9 °F 27.5 °F 21.7 °F 69% 30.50 in 10.0 mi West 3.5 mph - N/A   Overcast
6:34 AM 30.9 °F 27.5 °F 22.1 °F 70% 30.50 in 10.0 mi SSW 3.5 mph - N/A   Overcast
6:55 AM 26.2 °F 22.1 °F 21.2 °F 81% 30.52 in 10.0 mi East 3.5 mph - N/A   Overcast
7:15 AM 27.9 °F 22.6 °F 23.0 °F 82% 30.53 in 10.0 mi WSW 4.6 mph - N/A   Overcast
7:34 AM 30.9 °F 24.3 °F 22.5 °F 71% 30.54 in 10.0 mi WSW 6.9 mph - N/A   Overcast
7:55 AM 30.9 °F 24.3 °F 22.6 °F 71% 30.54 in 10.0 mi WSW 6.9 mph - N/A   Overcast
8:15 AM 30.9 °F 24.3 °F 23.0 °F 72% 30.55 in 10.0 mi WSW 6.9 mph - N/A   Overcast
8:34 AM 30.9 °F 24.3 °F 22.5 °F 71% 30.56 in 10.0 mi WSW 6.9 mph - N/A   Overcast
8:55 AM 30.9 °F 24.3 °F 21.6 °F 68% 30.56 in 10.0 mi WSW 6.9 mph - N/A   Overcast
9:15 AM 30.9 °F 25.2 °F 21.7 °F 69% 30.57 in 10.0 mi SW 5.8 mph - N/A   Overcast
9:34 AM 30.9 °F 25.2 °F 21.9 °F 69% 30.58 in 10.0 mi WSW 5.8 mph - N/A   Overcast
9:55 AM 31.3 °F 23.9 °F 21.9 °F 68% 30.58 in 10.0 mi WSW 8.1 mph - N/A   Overcast
10:15 AM 31.8 °F 26.2 °F 22.1 °F 67% 30.59 in 10.0 mi WSW 5.8 mph - N/A   Overcast
10:34 AM 32.0 °F 26.4 °F 21.9 °F 66% 30.60 in 10.0 mi WSW 5.8 mph - N/A   Overcast
10:55 AM 32.0 °F 26.4 °F 21.7 °F 66% 30.60 in 10.0 mi WSW 5.8 mph - N/A   Overcast
11:15 AM 32.0 °F 26.4 °F 21.9 °F 66% 30.60 in 10.0 mi WSW 5.8 mph - N/A   Overcast
11:34 AM 32.0 °F 25.6 °F 22.1 °F 67% 30.60 in 10.0 mi WSW 6.9 mph - N/A   Overcast
11:55 AM 32.0 °F 25.6 °F 21.9 °F 66% 30.60 in 10.0 mi WSW 6.9 mph - N/A   Overcast
12:15 PM 32.0 °F 24.8 °F 20.7 °F 63% 30.59 in 10.0 mi SW 8.1 mph - N/A   Overcast
12:35 PM 32.0 °F 24.8 °F 21.2 °F 64% 30.58 in 10.0 mi SSW 8.1 mph - N/A   Overcast
12:55 PM 31.1 °F 25.4 °F 20.7 °F 65% 30.58 in 10.0 mi SW 5.8 mph - N/A   Overcast
1:15 PM 31.8 °F 25.4 °F 19.6 °F 61% 30.58 in 10.0 mi WSW 6.9 mph - 0.01 in   Overcast
1:35 PM 32.0 °F 24.8 °F 20.7 °F 63% 30.57 in 10.0 mi SW 8.1 mph - 0.01 in   Overcast
1:55 PM 32.0 °F 25.6 °F 21.2 °F 64% 30.57 in 10.0 mi South 6.9 mph - 0.01 in   Overcast
2:15 PM 31.1 °F 24.5 °F 20.3 °F 64% 30.56 in 10.0 mi South 6.9 mph - N/A   Overcast
2:35 PM 30.9 °F 23.5 °F 20.3 °F 65% 30.56 in 10.0 mi South 8.1 mph - N/A   Overcast
2:55 PM 30.9 °F 23.5 °F 19.9 °F 64% - 10.0 mi South 8.1 mph - N/A   Overcast
3:15 PM 30.9 °F 24.3 °F 19.9 °F 64% 30.55 in 10.0 mi South 6.9 mph - N/A   Overcast
3:35 PM 30.9 °F 26.2 °F 20.1 °F 64% 30.55 in 10.0 mi SSE 4.6 mph - N/A   Mostly Cloudy
3:55 PM 30.9 °F 25.2 °F 20.3 °F 65% 30.56 in 10.0 mi South 5.8 mph - N/A   Scattered Clouds
4:14 PM 30.9 °F 25.2 °F 20.3 °F 65% 30.55 in 10.0 mi South 5.8 mph - N/A   Overcast
4:35 PM 30.9 °F 26.2 °F 20.3 °F 65% 30.55 in 10.0 mi SSE 4.6 mph - N/A   Mostly Cloudy
4:55 PM 30.9 °F 26.2 °F 21.2 °F 67% 30.55 in 10.0 mi SSE 4.6 mph - N/A   Mostly Cloudy
5:15 PM 30.9 °F 26.2 °F 22.3 °F 70% 30.55 in 10.0 mi SSE 4.6 mph - N/A   Mostly Cloudy
5:35 PM 30.9 °F 26.2 °F 23.0 °F 72% 30.54 in 10.0 mi SSE 4.6 mph - N/A   Mostly Cloudy
5:55 PM 30.9 °F 26.2 °F 23.4 °F 74% 30.54 in 10.0 mi SSE 4.6 mph - N/A   Mostly Cloudy
6:15 PM 30.9 °F 26.2 °F 23.5 °F 74% 30.53 in 10.0 mi SSE 4.6 mph - N/A   Mostly Cloudy
6:35 PM 30.9 °F 25.2 °F 23.7 °F 75% 30.53 in 10.0 mi SSE 5.8 mph - N/A   Mostly Cloudy
6:55 PM 30.9 °F 26.2 °F 23.0 °F 72% 30.53 in 10.0 mi SSE 4.6 mph - N/A   Overcast
7:15 PM 30.9 °F 25.2 °F 23.0 °F 72% 30.51 in 10.0 mi SSE 5.8 mph - N/A   Overcast
7:35 PM 30.9 °F 25.2 °F 23.0 °F 72% 30.50 in 10.0 mi SE 5.8 mph - N/A   Overcast
7:55 PM 30.9 °F 25.2 °F 22.8 °F 72% 30.50 in 10.0 mi SSE 5.8 mph - N/A   Overcast
8:15 PM 30.9 °F 24.3 °F 22.5 °F 71% 30.49 in 10.0 mi SSE 6.9 mph - N/A   Overcast
8:35 PM 30.9 °F 23.5 °F 22.5 °F 71% 30.49 in 10.0 mi SSE 8.1 mph - N/A   Overcast
8:55 PM 30.9 °F 22.8 °F 22.5 °F 71% 30.49 in 10.0 mi SSE 9.2 mph - N/A   Overcast
9:15 PM 30.9 °F 22.2 °F 22.6 °F 71% 30.48 in 10.0 mi SSE 10.4 mph - N/A   Overcast
9:35 PM 30.9 °F 22.2 °F 22.3 °F 70% 30.48 in 10.0 mi SSE 10.4 mph - N/A   Overcast
9:55 PM 30.9 °F 23.5 °F 21.9 °F 69% 30.48 in 10.0 mi SSE 8.1 mph - N/A   Scattered Clouds
10:15 PM 28.4 °F 19.7 °F 19.4 °F 69% 30.47 in 10.0 mi SSE 9.2 mph - N/A   Scattered Clouds
10:35 PM 28.4 °F 18.5 °F 19.4 °F 69% 30.46 in 10.0 mi SSE 11.5 mph 16.1 mph N/A   Scattered Clouds
10:55 PM 28.4 °F 19.1 °F 19.4 °F 69% 30.45 in 10.0 mi SSE 10.4 mph - N/A   Mostly Cloudy
11:15 PM 28.4 °F 19.7 °F 19.4 °F 69% 30.44 in 10.0 mi SSE 9.2 mph - N/A   Scattered Clouds
11:35 PM 28.4 °F 19.7 °F 19.4 °F 69% 30.43 in 10.0 mi SE 9.2 mph - N/A   Mostly Cloudy
11:55 PM 28.4 °F 19.7 °F 19.2 °F 69% 30.42 in 10.0 mi SE 9.2 mph - N/A   Overcast